Weather History for Trinidad, CO

Change the Weather History Date:

Sunday, October 6, 2013

  Actual Average Record
Temperature  
Mean Temperature 52 °F 56 °F  
Max Temperature 70 °F 72 °F 88 °F (1975)
Min Temperature 34 °F 40 °F 25 °F (1948)
Degree Days  
Heating Degree Days 13 9  
Month to date heating degree days 54 51  
Since 1 July heating degree days 95 161  
Cooling Degree Days 0 0  
Month to date cooling degree days 0 0  
Year to date cooling degree days 1068 716  
Growing Degree Days 2 (Base 50)    
Moisture  
Dew Point 14 °F    
Average Humidity 28    
Maximum Humidity 47    
Minimum Humidity 9    
Precipitation  
Precipitation 0.00 in 0.03 in 0.84 in (1954)
Month to date precipitation 0.00 0.16  
Year to date precipitation 9.44 11.86  
Sea Level Pressure  
Sea Level Pressure 30.19 in    
Wind  
Wind Speed 8 mph (WNW)    
Max Wind Speed 16 mph    
Max Gust Speed 18 mph    
Visibility 10 miles    
Events      
T = Trace of Precipitation, MM = Missing Value Source: NWS Daily Summary

Daily Weather History Graph

Daily Weather History Graph

Search for Another Location

Airport:

Trip Planner

Search our weather history database for the weather conditions in past years. The results will help you decide how hot, cold, wet, or windy it might be!

Date:

Astronomy

Oct. 06, 2013 Rise Set
Actual Time 6:57 AM MDT 6:32 PM MDT
Civil Twilight 6:31 AM MDT 6:58 PM MDT
Nautical Twilight 6:01 AM MDT 7:28 PM MDT
Astronomical Twilight 5:30 AM MDT 7:59 PM MDT
Moon 8:41 AM MDT (10/6) 7:37 PM MDT (10/6)
Length of Visible Light 12h 27m
Length of Day
11h 35m
Waxing Crescent, 4% of the Moon is Illuminated
Oct 6
Waxing Crescent
Oct 11
First Quarter
Oct 18
Full
Oct 26
Last Quarter
Nov 3
New

Hourly Weather History & Observations

Time (MDT) Temp. Windchill Dew Point Humidity Pressure Visibility Wind Dir Wind Speed Gust Speed Precip Events Conditions
12:54 AM 35.1 °F 27.9 °F 16.0 °F 46% 30.17 in 10.0 mi WNW 9.2 mph - N/A   Clear
1:54 AM 36.0 °F 28.0 °F 16.0 °F 44% 30.18 in 10.0 mi West 11.5 mph - N/A   Clear
2:54 AM 37.9 °F 29.6 °F 14.0 °F 38% 30.15 in 10.0 mi WSW 13.8 mph - N/A   Clear
3:54 AM 37.9 °F 30.0 °F 14.0 °F 38% 30.15 in 10.0 mi WSW 12.7 mph - N/A   Clear
4:54 AM 37.0 °F 30.4 °F 14.0 °F 39% 30.17 in 10.0 mi West 9.2 mph - N/A   Clear
5:54 AM 34.0 °F 26.0 °F 15.1 °F 46% 30.20 in 10.0 mi West 10.4 mph - N/A   Clear
6:54 AM 36.0 °F 28.0 °F 14.0 °F 41% 30.23 in 10.0 mi WSW 11.5 mph - N/A   Clear
7:54 AM 41.0 °F 34.7 °F 14.0 °F 33% 30.25 in 10.0 mi West 10.4 mph - N/A   Clear
8:54 AM 50.0 °F - 12.9 °F 23% 30.24 in 10.0 mi West 10.4 mph - N/A   Clear
9:54 AM 57.9 °F - 15.1 °F 19% 30.24 in 10.0 mi NNE 3.5 mph - N/A   Clear
10:54 AM 60.1 °F - 7.0 °F 12% 30.23 in 10.0 mi ENE 5.8 mph - N/A   Clear
11:54 AM 62.1 °F - 5.0 °F 10% 30.20 in 10.0 mi ENE 4.6 mph - N/A   Clear
12:54 PM 64.9 °F - 6.1 °F 10% 30.19 in 10.0 mi East 6.9 mph - N/A   Clear
1:54 PM 66.9 °F - 7.0 °F 10% 30.14 in 10.0 mi East 4.6 mph - N/A   Clear
2:54 PM 69.1 °F - 10.0 °F 10% 30.12 in 10.0 mi NE 6.9 mph - N/A   Clear
3:54 PM 69.1 °F - 10.0 °F 10% 30.12 in 10.0 mi East 3.5 mph - N/A   Clear
4:54 PM 68.0 °F - 12.9 °F 12% 30.13 in 10.0 mi East 10.4 mph - N/A   Clear
5:54 PM 64.9 °F - 15.1 °F 15% 30.16 in 10.0 mi East 6.9 mph - N/A   Clear
6:54 PM 57.9 °F - 17.1 °F 20% 30.20 in 10.0 mi East 5.8 mph - N/A   Clear
7:54 PM 55.0 °F - 18.0 °F 23% 30.21 in 10.0 mi East 4.6 mph - N/A   Clear
8:54 PM 52.0 °F - 18.0 °F 26% 30.21 in 10.0 mi South 5.8 mph - N/A   Clear
9:54 PM 45.0 °F 41.8 °F 18.0 °F 34% 30.21 in 10.0 mi West 5.8 mph - N/A   Clear
10:54 PM 46.0 °F 40.6 °F 17.1 °F 31% 30.19 in 10.0 mi WSW 11.5 mph - N/A   Clear
11:54 PM 45.0 °F 40.1 °F 18.0 °F 34% 30.18 in 10.0 mi West 9.2 mph - N/A   Clear